Вернуться в каталог

SL-14 DEB

АктивенPO
NORAD 45292·DEBRIS·🇷🇺 Russia

Запущен Aug 15, 1991 с Plesetsk Cosmodrome

Loading…

Ближайшие Пролёты (ближайшие 24 часа)

TLE

СвежийSource: Space-Track

Эпоха: Sep 14, 2026, 08:57 UTC

1 45292U 91056AE  26257.37314843  .00003196  00000-0  54249-2 0  9993
2 45292  82.6254  47.7248 0087669 297.6552  61.5707 13.43432595319520

Отслеживайте SL-14 DEB в реальном времени с AllMySat

Download on the App Store